This is the latest recevied weather packets stored in our database for station/object JO1YDG-13. If no packets are shown the sender has not sent any weather packets the latest 10 day(s).
| Time | Temp. | Humidity | Pressure | Rain* | Wind** | Luminosity | Snow |
|---|---|---|---|---|---|---|---|
| 1778134493 | 27.22° C | 52% | 980.1 hPa | 0 mm | - | - | - |
| 1778134193 | 27.78° C | 51% | 980.1 hPa | 0 mm | - | - | - |
| 1778133893 | 28.33° C | 50% | 980.1 hPa | 0 mm | - | - | - |
| 1778133594 | 28.33° C | 50% | 980.3 hPa | 0 mm | - | - | - |
| 1778133293 | 28.33° C | 50% | 980.3 hPa | 0 mm | - | - | - |
| 1778132993 | 28.33° C | 51% | 980.3 hPa | 0 mm | - | - | - |
| 1778132693 | 28.33° C | 49% | 980.3 hPa | 0 mm | - | - | - |
| 1778132393 | 28.89° C | 48% | 980.4 hPa | 0 mm | - | - | - |
| 1778132094 | 29.44° C | 49% | 980.5 hPa | 0 mm | - | - | - |
| 1778131793 | 28.33° C | 49% | 980.5 hPa | 0 mm | - | - | - |
| 1778131493 | 28.89° C | 48% | 980.5 hPa | 0 mm | - | - | - |
| 1778131194 | 28.89° C | 48% | 980.5 hPa | 0 mm | - | - | - |
| 1778130894 | 28.89° C | 48% | 980.7 hPa | 0 mm | - | - | - |
| 1778130594 | 29.44° C | 47% | 980.7 hPa | 0 mm | - | - | - |
| 1778130293 | 28.89° C | 48% | 980.7 hPa | 0 mm | - | - | - |
| 1778129993 | 29.44° C | 47% | 980.8 hPa | 0 mm | - | - | - |
| 1778129693 | 29.44° C | 47% | 980.8 hPa | 0 mm | - | - | - |
| 1778129393 | 29.44° C | 47% | 981.1 hPa | 0 mm | - | - | - |
| 1778129093 | 29.44° C | 47% | 981.1 hPa | 0 mm | - | - | - |
| 1778128794 | 29.44° C | 46% | 981.2 hPa | 0 mm | - | - | - |
| 1778128493 | 29.44° C | 46% | 981.2 hPa | 0 mm | - | - | - |
| 1778128193 | 29.44° C | 47% | 981.2 hPa | 0 mm | - | - | - |
| 1778127893 | 28.89° C | 47% | 981.5 hPa | 0 mm | - | - | - |
| 1778127593 | 30° C | 46% | 981.5 hPa | 0 mm | - | - | - |
| 1778127293 | 29.44° C | 46% | 981.7 hPa | 0 mm | - | - | - |
* Rain latest hour (hover to see other rain measurements)
** Current wind speed in m/s (hover to see current wind gust speed)